Time,TemperatureF,DewpointF,PressureIn,WindDirection,WindDirectionDegrees,WindSpeedMPH,WindSpeedGustMPH,Humidity,HourlyPrecipIn,Conditions,Clouds,dailyrainin,SoftwareType,DateUTC
2013-05-02 00:03:00,70.0,70.0,29.95,NNW,331,8.0,12.0,99,0.00,,,0.00,,2013-05-02 04:03:00,
2013-05-02 00:12:00,71.0,71.0,29.95,WNW,295,3.0,8.0,99,0.00,,,0.00,,2013-05-02 04:12:00,
2013-05-02 00:23:00,71.0,71.0,29.95,WNW,295,3.0,8.0,99,0.00,,,0.00,,2013-05-02 04:23:00,
2013-05-02 00:33:00,70.0,70.0,29.96,North,0,7.0,14.0,99,0.00,,,0.00,,2013-05-02 04:33:00,
2013-05-02 00:42:00,70.0,70.0,29.96,North,0,7.0,14.0,99,0.00,,,0.00,,2013-05-02 04:42:00,
2013-05-02 00:52:00,71.0,71.0,29.95,WNW,291,7.0,11.0,99,0.00,,,0.00,,2013-05-02 04:52:00,
2013-05-02 01:02:00,70.0,70.0,29.94,North,358,0.0,4.0,99,0.00,,,0.00,,2013-05-02 05:02:00,
2013-05-02 01:12:00,70.0,70.0,29.94,North,358,0.0,4.0,99,0.00,,,0.00,,2013-05-02 05:12:00,
2013-05-02 01:22:00,70.0,70.0,29.94,WNW,299,6.0,11.0,99,0.00,,,0.00,,2013-05-02 05:22:00,
2013-05-02 01:32:00,70.0,70.0,29.93,North,358,0.0,0.0,99,0.00,,,0.00,,2013-05-02 05:32:00,
2013-05-02 01:42:00,70.0,70.0,29.93,North,358,0.0,0.0,99,0.00,,,0.00,,2013-05-02 05:42:00,
2013-05-02 01:52:00,70.0,70.0,29.93,North,357,0.0,4.0,99,0.00,,,0.00,,2013-05-02 05:52:00,
2013-05-02 02:01:00,70.0,70.0,29.93,North,358,0.0,7.0,99,0.00,,,0.00,,2013-05-02 06:01:00,
2013-05-02 02:12:00,70.0,70.0,29.93,North,358,0.0,7.0,99,0.00,,,0.00,,2013-05-02 06:12:00,
2013-05-02 02:21:00,70.0,70.0,29.92,SW,236,0.0,11.0,99,0.00,,,0.00,,2013-05-02 06:21:00,
2013-05-02 02:32:00,70.0,70.0,29.92,West,278,6.0,8.0,99,0.00,,,0.00,,2013-05-02 06:32:00,
2013-05-02 02:42:00,70.0,70.0,29.92,West,278,6.0,8.0,99,0.00,,,0.00,,2013-05-02 06:42:00,
2013-05-02 02:52:00,70.0,70.0,29.92,WSW,246,9.0,13.0,99,0.00,,,0.00,,2013-05-02 06:52:00,
2013-05-02 03:02:00,70.0,70.0,29.91,ESE,104,2.0,11.0,99,0.00,,,0.00,,2013-05-02 07:02:00,
2013-05-02 03:11:00,70.0,70.0,29.91,ESE,104,2.0,11.0,99,0.00,,,0.00,,2013-05-02 07:11:00,
2013-05-02 03:21:00,70.0,70.0,29.91,East,84,5.0,14.0,99,0.00,,,0.00,,2013-05-02 07:21:00,
2013-05-02 03:32:00,70.0,70.0,29.89,SW,222,6.0,11.0,99,0.00,,,0.00,,2013-05-02 07:32:00,
2013-05-02 03:42:00,70.0,70.0,29.89,SW,234,4.0,11.0,99,0.00,,,0.00,,2013-05-02 07:42:00,
2013-05-02 03:52:00,70.0,70.0,29.89,SW,234,4.0,11.0,99,0.00,,,0.00,,2013-05-02 07:52:00,
2013-05-02 04:02:00,70.0,70.0,29.90,SW,236,3.0,9.0,99,0.00,,,0.00,,2013-05-02 08:02:00,
2013-05-02 04:11:00,70.0,70.0,29.89,South,172,4.0,11.0,99,0.00,,,0.00,,2013-05-02 08:11:00,
2013-05-02 04:22:00,70.0,70.0,29.89,South,172,4.0,11.0,99,0.00,,,0.00,,2013-05-02 08:22:00,
2013-05-02 04:32:00,70.0,70.0,29.89,West,267,6.0,11.0,99,0.00,,,0.00,,2013-05-02 08:32:00,
2013-05-02 04:42:00,70.0,70.0,29.89,West,267,6.0,11.0,99,0.00,,,0.00,,2013-05-02 08:42:00,
2013-05-02 04:52:00,70.0,70.0,29.89,WSW,251,7.0,12.0,99,0.00,,,0.00,,2013-05-02 08:52:00,
2013-05-02 05:02:00,69.0,69.0,29.89,SW,223,7.0,13.0,99,0.00,,,0.00,,2013-05-02 09:02:00,
2013-05-02 05:12:00,69.0,69.0,29.89,SW,223,7.0,13.0,99,0.00,,,0.00,,2013-05-02 09:12:00,
2013-05-02 05:21:00,69.0,69.0,29.89,SW,219,9.0,11.0,99,0.00,,,0.00,,2013-05-02 09:21:00,
2013-05-02 05:32:00,69.0,69.0,29.89,SW,232,8.0,12.0,99,0.00,,,0.00,,2013-05-02 09:32:00,
2013-05-02 05:42:00,69.0,69.0,29.89,SW,232,8.0,12.0,99,0.00,,,0.00,,2013-05-02 09:42:00,
2013-05-02 05:52:00,68.0,68.0,29.89,SW,232,0.0,11.0,99,0.00,,,0.00,,2013-05-02 09:52:00,
2013-05-02 06:03:00,69.0,69.0,29.90,WSW,247,5.0,12.0,99,0.00,,,0.00,,2013-05-02 10:03:00,
2013-05-02 06:12:00,69.0,69.0,29.90,WSW,247,5.0,12.0,99,0.00,,,0.00,,2013-05-02 10:12:00,
2013-05-02 06:22:00,69.0,69.0,29.90,SSW,199,0.0,7.0,99,0.00,,,0.00,,2013-05-02 10:22:00,
2013-05-02 06:33:00,68.0,68.0,29.90,SW,223,0.0,7.0,99,0.00,,,0.00,,2013-05-02 10:33:00,
2013-05-02 06:42:00,68.0,68.0,29.90,SW,223,0.0,7.0,99,0.00,,,0.00,,2013-05-02 10:42:00,
2013-05-02 06:52:00,68.0,68.0,29.90,SW,230,5.0,7.0,99,0.00,,,0.00,,2013-05-02 10:52:00,
2013-05-02 07:02:00,68.0,68.0,29.90,WSW,244,0.0,7.0,99,0.00,,,0.00,,2013-05-02 11:02:00,
2013-05-02 07:12:00,68.0,68.0,29.90,WSW,244,0.0,7.0,99,0.00,,,0.00,,2013-05-02 11:12:00,
2013-05-02 07:22:00,68.0,68.0,29.90,ESE,109,6.0,8.0,99,0.00,,,0.00,,2013-05-02 11:22:00,
2013-05-02 07:32:00,69.0,69.0,29.90,West,261,4.0,10.0,99,0.00,,,0.00,,2013-05-02 11:32:00,
2013-05-02 07:42:00,69.0,69.0,29.90,West,261,4.0,10.0,99,0.00,,,0.00,,2013-05-02 11:42:00,
2013-05-02 07:52:00,69.0,69.0,29.91,WSW,247,0.0,5.0,99,0.00,,,0.00,,2013-05-02 11:52:00,
2013-05-02 08:01:00,69.0,69.0,29.91,WSW,257,6.0,11.0,99,0.00,,,0.00,,2013-05-02 12:01:00,
2013-05-02 08:11:00,69.0,69.0,29.91,WSW,257,6.0,11.0,99,0.00,,,0.00,,2013-05-02 12:11:00,
2013-05-02 08:21:00,69.0,69.0,29.90,WSW,244,0.0,10.0,99,0.00,,,0.00,,2013-05-02 12:21:00,
2013-05-02 08:32:00,69.0,69.0,29.91,SSW,212,8.0,10.0,99,0.00,,,0.00,,2013-05-02 12:32:00,
2013-05-02 08:42:00,69.0,69.0,29.91,SSW,212,8.0,10.0,99,0.00,,,0.00,,2013-05-02 12:42:00,
2013-05-02 08:52:00,70.0,70.0,29.91,WSW,240,2.0,12.0,99,0.00,,,0.00,,2013-05-02 12:52:00,
2013-05-02 09:01:00,69.0,69.0,29.90,SSW,208,8.0,12.0,99,0.00,,,0.00,,2013-05-02 13:01:00,
2013-05-02 09:11:00,69.0,69.0,29.90,SSW,208,8.0,12.0,99,0.00,,,0.00,,2013-05-02 13:11:00,
2013-05-02 09:21:00,69.0,69.0,29.89,SW,226,0.0,10.0,99,0.00,,,0.00,,2013-05-02 13:21:00,
2013-05-02 09:32:00,70.0,70.0,29.90,West,265,6.0,9.0,99,0.00,,,0.00,,2013-05-02 13:32:00,
2013-05-02 09:42:00,70.0,70.0,29.90,West,265,6.0,9.0,99,0.00,,,0.00,,2013-05-02 13:42:00,
2013-05-02 09:52:00,71.0,71.0,29.90,SE,127,5.0,12.0,99,0.00,,,0.00,,2013-05-02 13:52:00,
2013-05-02 10:02:00,71.0,71.0,29.91,SW,233,7.0,12.0,99,0.00,,,0.00,,2013-05-02 14:02:00,
2013-05-02 10:11:00,71.0,71.0,29.91,SW,233,7.0,12.0,99,0.00,,,0.00,,2013-05-02 14:11:00,
2013-05-02 10:22:00,71.0,71.0,29.91,ESE,111,7.0,8.0,99,0.00,,,0.00,,2013-05-02 14:22:00,
2013-05-02 10:32:00,71.0,71.0,29.91,West,272,10.0,10.0,99,0.00,,,0.00,,2013-05-02 14:32:00,
2013-05-02 10:42:00,71.0,71.0,29.91,West,272,10.0,10.0,99,0.00,,,0.00,,2013-05-02 14:42:00,
2013-05-02 10:52:00,71.0,71.0,29.92,NW,310,3.0,8.0,99,0.00,,,0.00,,2013-05-02 14:52:00,
2013-05-02 11:02:00,71.0,71.0,29.92,WNW,300,2.0,8.0,99,0.00,,,0.00,,2013-05-02 15:02:00,
2013-05-02 11:12:00,71.0,71.0,29.92,WNW,300,2.0,8.0,99,0.00,,,0.00,,2013-05-02 15:12:00,
2013-05-02 11:22:00,71.0,71.0,29.92,WSW,254,4.0,8.0,99,0.00,,,0.00,,2013-05-02 15:22:00,
2013-05-02 11:33:00,71.0,71.0,29.91,West,271,0.0,8.0,99,0.00,,,0.00,,2013-05-02 15:33:00,
2013-05-02 11:43:00,71.0,71.0,29.91,West,271,0.0,8.0,99,0.00,,,0.00,,2013-05-02 15:43:00,
2013-05-02 12:03:00,72.0,72.0,29.91,SW,215,0.0,8.0,99,0.00,,,0.00,,2013-05-02 16:03:00,
2013-05-02 12:13:00,72.0,72.0,29.91,SW,215,0.0,8.0,99,0.00,,,0.00,,2013-05-02 16:13:00,
2013-05-02 12:22:00,72.0,72.0,29.91,ESE,119,0.0,4.0,99,0.00,,,0.00,,2013-05-02 16:22:00,
2013-05-02 12:32:00,72.0,72.0,29.91,SSW,205,0.0,8.0,99,0.00,,,0.00,,2013-05-02 16:32:00,
2013-05-02 12:43:00,72.0,72.0,29.90,SSW,198,0.0,3.0,99,0.00,,,0.00,,2013-05-02 16:43:00,
2013-05-02 12:52:00,72.0,72.0,29.90,SSW,198,0.0,3.0,99,0.00,,,0.00,,2013-05-02 16:52:00,
2013-05-02 13:02:00,73.0,73.0,29.89,SW,230,0.0,0.0,99,0.00,,,0.00,,2013-05-02 17:02:00,
2013-05-02 13:12:00,73.0,73.0,29.88,SSW,208,5.0,5.0,99,0.00,,,0.00,,2013-05-02 17:12:00,
2013-05-02 13:22:00,73.0,73.0,29.88,SSW,208,5.0,5.0,99,0.00,,,0.00,,2013-05-02 17:22:00,
2013-05-02 13:32:00,73.0,73.0,29.88,WNW,284,6.0,7.0,99,0.00,,,0.00,,2013-05-02 17:32:00,
2013-05-02 13:42:00,73.0,73.0,29.88,WNW,284,6.0,7.0,99,0.00,,,0.00,,2013-05-02 17:42:00,
2013-05-02 13:52:00,73.0,73.0,29.88,WSW,246,3.0,9.0,99,0.00,,,0.00,,2013-05-02 17:52:00,
2013-05-02 14:01:00,73.0,73.0,29.87,West,261,4.0,7.0,99,0.00,,,0.00,,2013-05-02 18:01:00,
2013-05-02 14:11:00,73.0,73.0,29.87,West,261,4.0,7.0,99,0.00,,,0.00,,2013-05-02 18:11:00,
2013-05-02 14:22:00,73.0,73.0,29.87,West,261,4.0,7.0,99,0.00,,,0.00,,2013-05-02 18:22:00,
2013-05-02 14:32:00,74.0,74.0,29.87,WSW,254,5.0,7.0,99,0.00,,,0.00,,2013-05-02 18:32:00,
2013-05-02 14:42:00,74.0,74.0,29.87,WSW,254,5.0,7.0,99,0.00,,,0.00,,2013-05-02 18:42:00,
2013-05-02 14:52:00,73.0,73.0,29.86,WNW,303,0.0,5.0,99,0.00,,,0.00,,2013-05-02 18:52:00,
2013-05-02 15:01:00,75.0,75.0,29.85,North,0,0.0,5.0,99,0.00,,,0.00,,2013-05-02 19:01:00,
2013-05-02 15:11:00,75.0,75.0,29.85,North,0,0.0,5.0,99,0.00,,,0.00,,2013-05-02 19:11:00,
2013-05-02 15:22:00,75.0,75.0,29.85,North,0,0.0,0.0,99,0.00,,,0.00,,2013-05-02 19:22:00,
2013-05-02 15:32:00,75.0,75.0,29.85,WNW,288,5.0,6.0,99,0.00,,,0.00,,2013-05-02 19:32:00,
2013-05-02 15:42:00,75.0,75.0,29.85,WNW,288,5.0,6.0,99,0.00,,,0.00,,2013-05-02 19:42:00,
2013-05-02 15:52:00,75.0,75.0,29.85,NNE,29,5.0,9.0,99,0.00,,,0.00,,2013-05-02 19:52:00,
2013-05-02 16:02:00,75.0,75.0,29.85,NNE,21,3.0,10.0,99,0.00,,,0.00,,2013-05-02 20:02:00,
2013-05-02 16:11:00,76.0,76.0,29.85,NE,43,5.0,7.0,99,0.00,,,0.00,,2013-05-02 20:11:00,
2013-05-02 16:22:00,76.0,76.0,29.85,NE,43,5.0,7.0,99,0.00,,,0.00,,2013-05-02 20:22:00,
2013-05-02 16:32:00,76.0,76.0,29.84,NE,56,3.0,9.0,99,0.00,,,0.00,,2013-05-02 20:32:00,
2013-05-02 16:41:00,76.0,76.0,29.84,NE,56,3.0,9.0,99,0.00,,,0.00,,2013-05-02 20:41:00,
2013-05-02 16:52:00,75.0,75.0,29.83,NNE,33,6.0,7.0,99,0.00,,,0.00,,2013-05-02 20:52:00,
2013-05-02 17:01:00,75.0,75.0,29.82,North,11,6.0,8.0,99,0.00,,,0.00,,2013-05-02 21:01:00,
2013-05-02 17:12:00,75.0,75.0,29.82,North,11,6.0,8.0,99,0.00,,,0.00,,2013-05-02 21:12:00,
2013-05-02 17:21:00,75.0,75.0,29.82,North,11,6.0,8.0,99,0.00,,,0.00,,2013-05-02 21:21:00,
2013-05-02 17:33:00,75.0,75.0,29.82,North,11,6.0,8.0,99,0.00,,,0.00,,2013-05-02 21:33:00,
2013-05-02 17:42:00,75.0,75.0,29.82,North,11,6.0,8.0,99,0.00,,,0.00,,2013-05-02 21:42:00,
2013-05-02 17:53:00,75.0,75.0,29.81,NE,49,6.0,8.0,99,0.00,,,0.00,,2013-05-02 21:53:00,
2013-05-02 18:03:00,75.0,75.0,29.81,East,95,4.0,7.0,99,0.00,,,0.00,,2013-05-02 22:03:00,
2013-05-02 18:12:00,75.0,75.0,29.81,East,95,4.0,7.0,99,0.00,,,0.00,,2013-05-02 22:12:00,
2013-05-02 18:22:00,75.0,75.0,29.81,NE,56,5.0,7.0,99,0.00,,,0.00,,2013-05-02 22:22:00,
2013-05-02 18:32:00,75.0,75.0,29.81,NE,47,6.0,8.0,99,0.00,,,0.00,,2013-05-02 22:32:00,
2013-05-02 18:42:00,75.0,75.0,29.81,NE,47,6.0,8.0,99,0.00,,,0.00,,2013-05-02 22:42:00,
2013-05-02 18:52:00,75.0,75.0,29.81,ESE,109,6.0,8.0,99,0.00,,,0.00,,2013-05-02 22:52:00,
2013-05-02 19:02:00,75.0,75.0,29.81,East,91,0.0,7.0,99,0.00,,,0.00,,2013-05-02 23:02:00,
2013-05-02 19:11:00,75.0,75.0,29.81,East,91,0.0,7.0,99,0.00,,,0.00,,2013-05-02 23:11:00,
2013-05-02 19:22:00,74.0,74.0,29.81,ENE,68,0.0,3.0,99,0.00,,,0.00,,2013-05-02 23:22:00,
2013-05-02 19:32:00,74.0,74.0,29.81,East,91,7.0,9.0,99,0.00,,,0.00,,2013-05-02 23:32:00,
2013-05-02 19:42:00,74.0,74.0,29.81,East,91,7.0,9.0,99,0.00,,,0.00,,2013-05-02 23:42:00,
2013-05-02 19:51:00,74.0,74.0,29.81,ESE,115,1.0,9.0,99,0.00,,,0.00,,2013-05-02 23:51:00,
2013-05-02 20:01:00,74.0,74.0,29.81,ESE,109,0.0,6.0,99,0.00,,,0.00,,2013-05-03 00:01:00,
2013-05-02 20:11:00,74.0,74.0,29.81,ESE,105,0.0,6.0,99,0.00,,,0.00,,2013-05-03 00:11:00,
2013-05-02 20:21:00,74.0,74.0,29.81,ESE,105,0.0,6.0,99,0.00,,,0.00,,2013-05-03 00:21:00,
2013-05-02 20:31:00,74.0,74.0,29.82,NE,42,0.0,0.0,99,0.00,,,0.00,,2013-05-03 00:31:00,
2013-05-02 20:42:00,74.0,74.0,29.82,NE,42,0.0,0.0,99,0.00,,,0.00,,2013-05-03 00:42:00,
2013-05-02 20:52:00,74.0,74.0,29.82,SE,127,0.0,0.0,99,0.00,,,0.00,,2013-05-03 00:52:00,
2013-05-02 21:01:00,74.0,74.0,29.82,East,91,0.0,0.0,99,0.00,,,0.00,,2013-05-03 01:01:00,
2013-05-02 21:11:00,74.0,74.0,29.82,East,91,0.0,0.0,99,0.00,,,0.00,,2013-05-03 01:11:00,
2013-05-02 21:21:00,74.0,74.0,29.82,ESE,104,0.0,4.0,99,0.00,,,0.00,,2013-05-03 01:21:00,
2013-05-02 21:32:00,74.0,74.0,29.82,East,94,0.0,0.0,99,0.00,,,0.00,,2013-05-03 01:32:00,
2013-05-02 21:42:00,74.0,74.0,29.82,East,94,0.0,0.0,99,0.00,,,0.00,,2013-05-03 01:42:00,
2013-05-02 21:52:00,74.0,74.0,29.82,East,94,0.0,0.0,99,0.00,,,0.00,,2013-05-03 01:52:00,
2013-05-02 22:01:00,74.0,74.0,29.83,East,94,0.0,0.0,99,0.00,,,0.00,,2013-05-03 02:01:00,
2013-05-02 22:11:00,74.0,74.0,29.83,East,94,0.0,0.0,99,0.00,,,0.00,,2013-05-03 02:11:00,
2013-05-02 22:22:00,74.0,74.0,29.82,East,94,0.0,0.0,99,0.00,,,0.00,,2013-05-03 02:22:00,
2013-05-02 22:32:00,73.0,73.0,29.83,East,94,0.0,0.0,99,0.00,,,0.00,,2013-05-03 02:32:00,
2013-05-02 22:42:00,73.0,73.0,29.83,East,94,0.0,0.0,99,0.00,,,0.00,,2013-05-03 02:42:00,
2013-05-02 22:52:00,73.0,73.0,29.83,East,94,0.0,0.0,99,0.00,,,0.00,,2013-05-03 02:52:00,
2013-05-02 23:01:00,73.0,73.0,29.83,SW,226,0.0,0.0,99,0.00,,,0.00,,2013-05-03 03:01:00,
2013-05-02 23:11:00,73.0,73.0,29.83,SSW,201,0.0,0.0,99,0.00,,,0.00,,2013-05-03 03:11:00,
2013-05-02 23:21:00,73.0,73.0,29.83,SSW,201,0.0,0.0,99,0.00,,,0.00,,2013-05-03 03:21:00,
2013-05-02 23:33:00,73.0,73.0,29.82,SW,227,0.0,0.0,99,0.00,,,0.00,,2013-05-03 03:33:00,
2013-05-02 23:42:00,73.0,73.0,29.82,SW,227,0.0,0.0,99,0.00,,,0.00,,2013-05-03 03:42:00,
2013-05-02 23:52:00,72.0,72.0,29.82,SW,227,0.0,0.0,99,0.00,,,0.00,,2013-05-03 03:52:00,